Regional Weather Roundup
Issued by NWS

Home | Current Version | Previous Version | Text Only | Print | Product List | Glossary On
Versions: 1 2 3 4 5 6 7 8 9 10 11 12 13 14 15 16 17 18 19 20 21 22 23 24 25 26 27 28 29 30 31 32 33 34 35 36 37 38 39 40 41 42 43 44 45 46 47 48 49 50
000
ASUS43 KLSX 252307
RWRMO

WEATHER SUMMARY FOR MISSOURI
NATIONAL WEATHER SERVICE SPRINGFIELD MO
500 PM CST TUE NOV 25 2014

NOTE: "FAIR" INDICATES FEW OR NO CLOUDS BELOW 12,000 FEET WITH NO
       SIGNIFICANT WEATHER AND/OR OBSTRUCTIONS TO VISIBILITY.
       CURRENT SKY AND/OR WEATHER CONDITIONS ARE NOT AVAILABLE FOR
       CHILLICOTHE AND FARMINGTON.

MOZ001>031-035>038-043-044-053-054-260000-
...NORTHERN AND WESTERN MISSOURI...

CITY           SKY/WX    TMP DP  RH WIND       PRES   REMARKS
KANSAS CTY INT PTCLDY    33  19  56 S8        30.08F WCI  26
KANSAS C DTWN  CLEAR     38  17  42 S6        30.09F
LEE`S SUMMIT   CLEAR     39  15  37 S6        30.10F
ST JOSEPH      PTCLDY    38  19  46 S10       30.07F
CHILLICOTHE      N/A     35  16  45 S3        30.11F
KIRKSVILLE     CLEAR     32  16  51 SW5       30.12S WCI  27

$$
MOZ066>068-077>081-088>096-101>105-260000-
...SOUTHWEST MISSOURI...

CITY           SKY/WX    TMP DP  RH WIND       PRES   REMARKS
SPRINGFIELD    CLEAR     41  16  36 W5        30.12F
JOPLIN         CLEAR     41  20  43 SW6       30.14F

$$
MOZ032>034-039>042-045>050-055>058-069>072-260000-
...CENTRAL MISSOURI...

CITY           SKY/WX    TMP DP  RH WIND       PRES   REMARKS
COLUMBIA       CLEAR     37  15  40 SW5       30.13F
JEFFERSON CITY CLEAR     39  14  36 W3        30.15S
ROLLA          CLEAR     36  17  46 W5        30.12R
SEDALIA        CLEAR     37  15  40 SW5       30.14S
WHITEMAN AFB   CLEAR     37  13  38 SW7       30.12S
WARRENSBURG    CLEAR     36  12  38 S5        30.12S
OSAGE BEACH    CLEAR     39  12  33 W3        30.13S

$$
MOZ051-052-059>065-260000-
...EAST CENTRAL MISSOURI...

CITY           SKY/WX    TMP DP  RH WIND       PRES   REMARKS
ST LOUIS INTL  PTCLDY    38  21  50 W6        30.16R
SPIRIT OF STL  CLEAR     33  26  75 CALM      30.15S
ST CHARLES     CLEAR     35  25  66 NW5       30.16R

$$
MOZ072>076-082>087-097>100-106>115-260000-
...SOUTH CENTRAL AND SOUTHEAST MISSOURI...

CITY           SKY/WX    TMP DP  RH WIND       PRES   REMARKS
CAPE GIRARDEAU CLEAR     38  26  62 E7        30.17R
FARMINGTON     CLEAR     39  18  41 CALM      30.16R
POPLAR BLUFF   CLEAR     41  26  55 SE6       30.15R
WEST PLAINS    CLEAR     39  17  41 W3        30.14R

$$



USA.gov is the U.S. government's official web portal to all federal, state and local government web resources and services.